EW2077 Weather Reports


time (UTC)temp
C
wind
direction
speed
KPH
gust
KPH
rain 1hr
cm
rain 24hr
cm
rain mn
cm
humidity
%
barometer
mb
20260906224510 26 196 0.0 4.8 0.00 0.25 0.03 42 1029.4
20260906223012 26 211 1.6 6.4 0.00 0.25 0.03 41 1029.6
20260906221507 26 200 0.0 4.8 0.00 0.25 0.03 44 1029.7
20260906220006 26 218 0.0 4.8 0.00 0.25 0.03 42 1030.0
20260906214505 26 221 0.0 9.7 0.00 0.25 0.03 40 1030.1
20260906213003 26 219 0.0 6.4 0.00 0.25 0.03 40 1030.3
20260906211501 26 215 1.6 9.7 0.00 0.25 0.03 40 1030.4
20260906210114 26 217 0.0 9.7 0.00 0.25 0.03 41 1030.5
20260906204602 26 219 1.6 8.0 0.00 0.25 0.03 41 1030.5
20260906203057 26 167 1.6 8.0 0.00 0.25 0.03 41 1030.6
20260906201604 26 213 0.0 8.0 0.00 0.25 0.03 40 1030.6
20260906200059 26 209 1.6 8.0 0.00 0.25 0.03 42 1030.7
20260906194552 26 219 0.0 6.4 0.00 0.25 0.03 41 1030.7
20260906193050 26 190 1.6 9.7 0.00 0.25 0.03 41 1030.7
20260906191547 26 215 0.0 9.7 0.00 0.25 0.03 40 1030.9
20260906190116 26 201 3.2 9.7 0.00 0.25 0.03 39 1031.1
20260906184544 26 209 3.2 11.3 0.00 0.25 0.03 39 1031.3
20260906183048 26 209 0.0 8.0 0.00 0.25 0.03 38 1031.4
20260906181541 26 200 0.0 9.7 0.00 0.25 0.03 38 1031.7
20260906180036 26 209 1.6 8.0 0.00 0.25 0.03 38 1031.9
20260906174534 26 214 1.6 6.4 0.00 0.25 0.03 40 1032.3
20260906173032 25 199 0.0 6.4 0.00 0.25 0.03 40 1032.5
20260906171529 25 210 1.6 6.4 0.00 0.25 0.03 41 1032.9
20260906170030 24 206 3.2 8.0 0.00 0.25 0.03 45 1033.1
20260906164523 23 225 1.6 6.4 0.00 0.25 0.03 44 1033.3
20260906163020 23 294 0.0 4.8 0.00 0.25 0.03 44 1033.4
20260906161518 22 320 0.0 1.6 0.00 0.25 0.03 48 1033.4
20260906160014 22 345 0.0 0.0 0.00 0.25 0.03 51 1033.4
20260906154511 20 348 0.0 0.0 0.00 0.25 0.03 54 1033.5
20260906153006 18 348 0.0 0.0 0.00 0.25 0.03 67 1033.6
20260906151501 17 348 0.0 0.0 0.00 0.25 0.03 68 1033.7
20260906150057 16 348 0.0 0.0 0.00 0.25 0.03 77 1033.8
20260906144553 15 348 0.0 0.0 0.00 0.25 0.03 83 1034.0
20260906143053 13 348 0.0 0.0 0.03 0.25 0.03 87 1034.0
20260906141545 12 348 0.0 0.0 0.03 0.25 0.03 89 1034.1
20260906140049 11 348 0.0 0.0 0.03 0.25 0.03 88 1034.0
20260906134545 11 348 0.0 0.0 0.03 0.25 0.03 89 1034.0
20260906133100 10 348 0.0 0.0 0.00 0.23 0.00 89 1034.1
20260906131546 10 348 0.0 0.0 0.00 0.23 0.00 89 1034.0
20260906130049 10 348 0.0 0.0 0.00 0.23 0.00 88 1033.8
20260906124543 9 348 0.0 0.0 0.00 0.23 0.00 89 1033.7
20260906123043 9 348 0.0 0.0 0.00 0.23 0.00 89 1033.6
20260906121536 9 348 0.0 0.0 0.00 0.23 0.00 89 1033.7
20260906120044 9 348 0.0 0.0 0.00 0.23 0.00 89 1033.7
20260906114534 9 348 0.0 0.0 0.00 0.23 0.00 89 1033.7
20260906113039 10 348 0.0 0.0 0.00 0.23 0.00 90 1033.6
20260906111530 10 348 0.0 0.0 0.00 0.23 0.00 90 1033.3
20260906110028 10 348 0.0 0.0 0.00 0.23 0.00 90 1033.3
20260906104533 10 348 0.0 0.0 0.00 0.23 0.00 90 1033.3
20260906103026 10 348 0.0 0.0 0.00 0.23 0.00 90 1033.3
20260906101524 10 348 0.0 0.0 0.00 0.23 0.00 90 1033.2
20260906100031 10 348 0.0 0.0 0.00 0.23 0.00 90 1033.2
20260906094519 10 348 0.0 0.0 0.00 0.23 0.00 90 1033.3
20260906093040 10 348 0.0 0.0 0.00 0.23 0.00 90 1033.3
20260906091516 10 348 0.0 0.0 0.00 0.23 0.00 90 1033.3
20260906090020 10 348 0.0 0.0 0.00 0.23 0.00 90 1032.9
20260906084518 10 348 0.0 0.0 0.00 0.23 0.00 90 1032.8
20260906083023 10 348 0.0 0.0 0.00 0.23 0.00 90 1032.7
20260906081513 11 348 0.0 0.0 0.00 0.23 0.00 90 1032.8
20260906080011 11 348 0.0 0.0 0.00 0.23 0.00 90 1033.0
20260906074526 11 348 0.0 0.0 0.00 0.23 0.00 90 1033.1
20260906073010 11 348 0.0 0.0 0.00 0.23 0.00 89 1033.1
20260906071504 11 348 0.0 0.0 0.00 0.23 0.00 89 1033.1
20260906070001 12 348 0.0 0.0 0.00 0.23 0.00 89 1033.3
20260906064559 12 348 0.0 0.0 0.00 0.23 0.00 89 1033.2
20260906063058 12 348 0.0 0.0 0.00 0.23 0.00 89 1033.1
20260906061602 12 348 0.0 0.0 0.00 0.23 0.00 89 1033.3
20260906060048 12 348 0.0 0.0 0.00 0.23 0.00 88 1033.3
20260906054549 13 348 0.0 0.0 0.00 0.23 0.23 88 1033.4
20260906053104 13 348 0.0 1.6 0.00 0.23 0.23 88 1033.4
20260906051547 13 350 0.0 0.0 0.10 0.23 0.23 88 1033.7
20260906050047 14 350 0.0 0.0 0.23 0.23 0.23 87 1033.6
20260906044546 14 350 0.0 0.0 0.23 0.23 0.23 85 1033.8
20260906043044 15 355 0.0 1.6 0.23 0.23 0.23 80 1033.9
20260906041550 17 5 0.0 20.9 0.13 0.13 0.13 69 1033.6
20260906040039 20 355 1.6 20.9 0.00 0.00 0.00 47 1033.1
20260906034543 20 15 1.6 14.5 0.00 0.00 0.00 47 1032.8
20260906033045 18 209 0.0 0.0 0.00 0.00 0.00 45 1032.8
20260906031540 18 209 0.0 0.0 0.00 0.00 0.00 46 1032.5
20260906030046 19 209 0.0 0.0 0.00 0.00 0.00 44 1032.4
20260906024536 19 209 0.0 0.0 0.00 0.00 0.00 43 1032.2
20260906023035 20 209 0.0 0.0 0.00 0.00 0.00 42 1031.9
20260906021535 20 209 0.0 0.0 0.00 0.00 0.00 40 1031.8
20260906020034 21 209 0.0 0.0 0.00 0.00 0.00 38 1031.7
20260906014544 22 209 0.0 0.0 0.00 0.00 0.00 37 1031.5
20260906013033 22 209 0.0 0.0 0.00 0.00 0.00 35 1031.3
20260906011539 23 209 0.0 0.0 0.00 0.00 0.00 34 1031.3
20260906010056 24 209 0.0 0.0 0.00 0.00 0.00 33 1031.3
20260906004532 25 209 0.0 0.0 0.00 0.00 0.00 31 1031.3
20260906003031 25 209 0.0 0.0 0.00 0.00 0.00 30 1031.2
20260906001548 25 209 0.0 1.6 0.00 0.00 0.00 30 1031.2
20260906000030 26 209 0.0 3.2 0.00 0.00 0.00 30 1031.0
20260905234530 26 209 0.0 4.8 0.00 0.00 0.00 29 1030.9
20260905233128 27 204 0.0 6.4 0.00 0.00 0.00 27 1030.8
20260905231538 26 204 0.0 4.8 0.00 0.00 0.00 29 1030.7
20260905230026 26 204 0.0 0.0 0.00 0.00 0.00 29 1030.7